Tracking 25710 objects as of 5-Jul-2022
HD Live streaming from Space Station
objects crossing your sky now

FENGYUN 1C DEB

Track FENGYUN 1C DEB now!
10-day predictions


NORAD ID: 32103
Int'l Code: 1999-025CQV
Perigee: 597.7 km
Apogee: 693.2 km
Inclination: 96.7 °
Period: 97.5 minutes
Semi major axis: 7016 km
RCS: 0.0063 m2 (small)
Launch date: May 10, 1999
Source: People's Republic of China (PRC)
Launch site: Taiyaun Space Center, China (TSC)

Note: This is SATELLITE DEBRIS
aabbcc
Your satellite tracking list
Your tracking list is empty




NASA's NSSDC Master Catalog

Two Line Element Set (TLE):
1 32103U 99025CQV 22185.78077815  .00013091  00000-0  17842-2 0  9993
2 32103  96.6932 191.5012 0068069  62.9647 111.3048 14.77154750802760
Source of the keplerian elements: AFSPC